Cadillac, MI

12:33 PM EST on January 20, 2018 (GMT -0500)
Wexford County

Weather History for KCAD - August, 2013

Change the Weather History Date:

Wednesday, August 7, 2013

  Actual Average Record
Temperature  
Mean Temperature 70 °F -  
Max Temperature 79 °F 77 °F 96 °F (2001)
Min Temperature 61 °F 53 °F 36 °F (1975)
Cooling Degree Days 5    
Growing Degree Days 20 (Base 50)    
Moisture  
Dew Point 60 °F    
Average Humidity 75    
Maximum Humidity 91    
Minimum Humidity 49    
Precipitation  
Precipitation 0.00 in - - ()
Sea Level Pressure  
Sea Level Pressure 29.85 in    
Wind  
Wind Speed 8 mph (WSW)    
Max Wind Speed 20 mph    
Max Gust Speed 39 mph    
Visibility 9 miles    
Events Rain    
Averages and records for this station are not official NWS values.
T = Trace of Precipitation, MM = Missing Value Source: NWS Daily Summary

Daily Weather History Graph

Daily Weather History Graph

Search for Another Location

Airport or City:

Trip Planner

Search our weather history database for the weather conditions in past years. The results will help you decide how hot, cold, wet, or windy it might be!

Date:

Astronomy

Aug. 07, 2013 Rise Set
Actual Time 6:36 AM EDT 8:57 PM EDT
Civil Twilight 6:03 AM EDT 9:30 PM EDT
Nautical Twilight 5:23 AM EDT 10:10 PM EDT
Astronomical Twilight 4:38 AM EDT 10:55 PM EDT
Moon 7:28 AM EDT (8/7) 8:59 PM EDT (8/7)
Length of Visible Light 15h 26m
Length of Day
14h 21m
New Moon, 1% of the Moon is Illuminated
Aug 7
New Moon
Aug 14
First Quarter
Aug 20
Full
Aug 28
Last Quarter
Sep 5
New

Hourly Weather History & Observations

Time (EDT) Temp. Dew Point Humidity Pressure Visibility Wind Dir Wind Speed Gust Speed Precip Events Conditions
12:15 AM 65.3 °F 62.2 °F 90% 29.85 in 4.0 mi SW 5.8 mph - N/A   Scattered Clouds
12:35 AM 65.3 °F 62.2 °F 90% 29.85 in 3.0 mi SSW 8.1 mph - N/A   Mist
12:55 AM 65.3 °F 62.6 °F 91% 29.85 in 3.0 mi SSW 8.1 mph - N/A   Mist
1:15 AM 66.6 °F 63.7 °F 90% 29.84 in 3.0 mi SSW 6.9 mph - N/A   Scattered Clouds
1:35 AM 66.6 °F 63.7 °F 90% 29.83 in 3.0 mi SSW 5.8 mph - N/A   Mist
1:54 AM 66.6 °F 63.5 °F 90% 29.82 in 4.0 mi SSW 9.2 mph - N/A Rain Light Rain
2:15 AM 66.6 °F 63.5 °F 90% 29.82 in 3.0 mi SSW 9.2 mph - N/A   Mist
2:35 AM 66.6 °F 63.7 °F 90% 29.81 in 3.0 mi SSW 8.1 mph - N/A   Mist
2:54 AM 68.0 °F 64.9 °F 90% 29.80 in 4.0 mi SSW 6.9 mph - N/A   Mostly Cloudy
3:15 AM 69.1 °F 66.2 °F 91% 29.80 in 4.0 mi SSW 9.2 mph - N/A   Overcast
3:35 AM 69.1 °F 65.8 °F 89% 29.78 in 5.0 mi SSW 6.9 mph - N/A   Overcast
3:54 AM 71.6 °F 68.4 °F 89% 29.79 in 5.0 mi SSW 9.2 mph - N/A Rain Light Rain
4:15 AM 64.8 °F 60.4 °F 86% 29.83 in 10.0 mi West 19.6 mph 39.1 mph N/A Rain Light Rain
4:35 AM 63.0 °F 59.0 °F 87% 29.81 in 10.0 mi West 11.5 mph 24.2 mph N/A Rain Rain
4:54 AM 62.6 °F 59.2 °F 89% 29.79 in 10.0 mi WSW 5.8 mph - N/A Rain Light Rain
5:15 AM 62.1 °F 59.0 °F 90% 29.78 in 10.0 mi SSW 11.5 mph - N/A Rain Rain
5:35 AM 61.9 °F 59.0 °F 90% 29.69 in 10.0 mi SSE 10.4 mph - N/A Rain Light Rain
5:54 AM 61.7 °F 58.5 °F 89% 29.74 in 10.0 mi SW 12.7 mph - N/A   Scattered Clouds
6:15 AM 61.7 °F 58.6 °F 90% 29.75 in 10.0 mi SW 9.2 mph - N/A   Clear
6:34 AM 61.7 °F 58.6 °F 90% 29.76 in 10.0 mi SW 8.1 mph - N/A   Clear
6:55 AM 61.7 °F 58.5 °F 89% 29.76 in 10.0 mi SW 11.5 mph - N/A   Clear
7:15 AM 61.7 °F 57.9 °F 87% 29.77 in 10.0 mi SW 9.2 mph 17.3 mph N/A   Clear
7:34 AM 61.7 °F 57.7 °F 87% 29.76 in 10.0 mi WSW 9.2 mph - N/A   Clear
7:46 AM 61.7 °F 58.1 °F 88% 29.76 in 10.0 mi WSW 8.1 mph - N/A   Clear
8:46 AM 65.3 °F 59.7 °F 82% 29.78 in 10.0 mi West 5.8 mph - N/A   Clear
8:55 AM 66.6 °F 60.3 °F 80% 29.78 in 10.0 mi West 5.8 mph - N/A   Clear
9:00 AM 67.1 °F 60.4 °F 79% 29.79 in 10.0 mi West 9.2 mph - N/A   Clear
9:51 AM 68.0 °F 60.8 °F 78% 29.81 in 10.0 mi WNW 10.4 mph - N/A   Overcast
10:04 AM 66.2 °F 59.0 °F 78% 29.81 in 10.0 mi West 8.1 mph - N/A   Overcast
10:08 AM 67.3 °F 60.4 °F 79% 29.81 in 10.0 mi West 8.1 mph - N/A   Overcast
10:35 AM 69.1 °F 61.0 °F 75% 29.82 in 10.0 mi WSW 6.9 mph - N/A   Overcast
10:55 AM 69.1 °F 61.0 °F 75% 29.82 in 10.0 mi West 6.9 mph - N/A   Overcast
11:15 AM 69.1 °F 60.6 °F 74% 29.84 in 10.0 mi West 9.2 mph - N/A   Overcast
11:35 AM 71.4 °F 62.2 °F 73% 29.84 in 10.0 mi WSW 5.8 mph - N/A   Overcast
11:54 AM 71.6 °F 60.6 °F 68% 29.84 in 10.0 mi SW 6.9 mph - N/A   Overcast
12:15 PM 71.6 °F 61.2 °F 70% 29.84 in 10.0 mi SW 4.6 mph - N/A   Overcast
12:35 PM 76.6 °F 62.2 °F 61% 29.84 in 10.0 mi WSW 3.5 mph - N/A   Mostly Cloudy
12:54 PM 76.6 °F 61.0 °F 58% 29.84 in 10.0 mi West 8.1 mph - N/A   Mostly Cloudy
1:15 PM 76.6 °F 60.6 °F 58% 29.84 in 10.0 mi SW 13.8 mph 18.4 mph N/A   Mostly Cloudy
1:35 PM 78.4 °F 60.8 °F 55% 29.85 in 10.0 mi SW 10.4 mph 16.1 mph N/A   Mostly Cloudy
1:55 PM 76.6 °F 59.5 °F 55% 29.85 in 10.0 mi SW 10.4 mph - N/A   Mostly Cloudy
2:15 PM 76.6 °F 59.9 °F 56% 29.85 in 10.0 mi SW 12.7 mph - N/A   Mostly Cloudy
2:34 PM 76.6 °F 60.1 °F 56% 29.85 in 10.0 mi WSW 10.4 mph 17.3 mph N/A   Mostly Cloudy
2:55 PM 76.8 °F 59.7 °F 55% 29.85 in 10.0 mi West 12.7 mph 18.4 mph N/A   Mostly Cloudy
3:15 PM 79.2 °F 59.0 °F 50% 29.85 in 10.0 mi West 10.4 mph 16.1 mph N/A   Mostly Cloudy
3:34 PM 77.4 °F 57.7 °F 51% 29.85 in 10.0 mi West 9.2 mph - N/A   Mostly Cloudy
3:55 PM 79.0 °F 58.5 °F 49% 29.85 in 10.0 mi WNW 10.4 mph 16.1 mph N/A   Mostly Cloudy
4:15 PM 76.6 °F 58.5 °F 53% 29.86 in 10.0 mi WNW 10.4 mph - N/A   Mostly Cloudy
4:34 PM 77.2 °F 58.3 °F 52% 29.86 in 10.0 mi West 13.8 mph 17.3 mph N/A   Mostly Cloudy
4:55 PM 76.8 °F 58.8 °F 54% 29.87 in 10.0 mi West 12.7 mph 18.4 mph N/A   Mostly Cloudy
5:15 PM 76.6 °F 56.8 °F 50% 29.87 in 10.0 mi West 11.5 mph 20.7 mph N/A   Scattered Clouds
5:34 PM 76.6 °F 59.9 °F 56% 29.88 in 10.0 mi West 13.8 mph 17.3 mph N/A   Scattered Clouds
5:55 PM 74.3 °F 58.6 °F 58% 29.89 in 10.0 mi West 9.2 mph 19.6 mph N/A   Scattered Clouds
6:15 PM 73.8 °F 59.4 °F 61% 29.89 in 10.0 mi WNW 11.5 mph - N/A   Clear
6:34 PM 71.6 °F 58.6 °F 64% 29.89 in 10.0 mi NW 8.1 mph - N/A   Scattered Clouds
6:55 PM 71.6 °F 58.6 °F 64% 29.90 in 10.0 mi NW 8.1 mph - N/A   Scattered Clouds
7:15 PM 71.6 °F 59.0 °F 64% 29.91 in 10.0 mi WNW 10.4 mph - N/A   Scattered Clouds
7:34 PM 71.6 °F 59.9 °F 66% 29.91 in 10.0 mi WNW 8.1 mph - N/A   Scattered Clouds
7:55 PM 71.6 °F 60.1 °F 67% 29.91 in 10.0 mi NW 6.9 mph - N/A   Clear
8:15 PM 69.3 °F 58.5 °F 68% 29.91 in 10.0 mi NNW 6.9 mph - N/A   Clear
8:34 PM 67.5 °F 57.9 °F 71% 29.92 in 10.0 mi NNW 6.9 mph - N/A   Clear
8:55 PM 65.3 °F 57.2 °F 75% 29.93 in 10.0 mi NNW 4.6 mph - N/A   Clear
9:14 PM 64.2 °F 57.2 °F 78% 29.93 in 10.0 mi NNW 4.6 mph - N/A   Scattered Clouds
9:35 PM 63.9 °F 57.9 °F 81% 29.94 in 10.0 mi Calm Calm - N/A   Scattered Clouds
9:55 PM 62.8 °F 57.9 °F 84% 29.95 in 10.0 mi Calm Calm - N/A   Clear
10:15 PM 61.7 °F 57.4 °F 86% 29.96 in 10.0 mi Calm Calm - N/A   Clear
10:35 PM 61.7 °F 57.9 °F 87% 29.97 in 10.0 mi NNW 3.5 mph - N/A   Clear
10:55 PM 61.7 °F 57.7 °F 87% 29.98 in 10.0 mi North 4.6 mph - N/A   Clear
11:15 PM 61.7 °F 58.1 °F 88% 29.98 in 10.0 mi NNW 5.8 mph - N/A   Scattered Clouds
11:35 PM 61.7 °F 57.6 °F 86% 29.98 in 10.0 mi North 6.9 mph - N/A   Scattered Clouds
11:55 PM 61.7 °F 55.4 °F 80% 29.99 in 10.0 mi North 4.6 mph - N/A   Scattered Clouds